{"data":{"norad_id":57919,"epoch":"2026-05-25T00:47:06.239040Z","epoch_age_seconds":62381,"freshness":"FRESH","line1":"1 57919U 23147G   26145.03271110 -.00000067  00000+0  70802-5 0  9996","line2":"2 57919  43.0037 254.0671 0001503 270.1991  89.8689 15.27585523148300","mean_motion":15.27585523,"eccentricity":0.0001503,"inclination_deg":43.0037,"raan_deg":254.0671,"arg_perigee_deg":270.1991,"mean_anomaly_deg":89.8689,"bstar":7.0802e-6,"rev_number":14830,"period_min":94.266407891324,"perigee_km":482.00132445599,"apogee_km":484.06379202519,"semimajor_km":6861.1695582406,"source":"CELESTRAK","updated_at":"2026-05-25T13:38:18.457415Z"}}